This is the latest recevied weather packets stored in our database for station/object KE2HEH. If no packets are shown the sender has not sent any weather packets the latest 10 day(s).
| Time | Temp. | Humidity | Pressure | Rain* | Wind** | Luminosity | Snow |
|---|---|---|---|---|---|---|---|
| 1777770590 | 11.67° C | 82% | 1011.7 hPa | 0 mm | - | 0 W/m² | - |
| 1777770287 | 12.22° C | 82% | 1011.5 hPa | 0 mm | - | 0 W/m² | - |
| 1777769984 | 12.22° C | 82% | 1011.4 hPa | 0 mm | - | 0 W/m² | - |
| 1777769682 | 12.22° C | 82% | 1011.3 hPa | 0 mm | - | 0 W/m² | - |
| 1777769378 | 12.22° C | 82% | 1011.3 hPa | 0 mm | - | 0 W/m² | - |
| 1777769075 | 12.22° C | 82% | 1011.2 hPa | 0 mm | - | 0 W/m² | - |
| 1777768773 | 12.22° C | 81% | 1011.2 hPa | 0 mm | - | 0 W/m² | - |
| 1777768469 | 12.22° C | 81% | 1011.1 hPa | 0 mm | - | 0 W/m² | - |
| 1777768167 | 12.22° C | 80% | 1011.1 hPa | 0 mm | - | 0 W/m² | - |
| 1777767864 | 12.78° C | 79% | 1010.9 hPa | 0 mm | - | 0 W/m² | - |
| 1777767560 | 12.78° C | 79% | 1010.9 hPa | 0 mm | - | 0 W/m² | - |
| 1777767257 | 12.78° C | 78% | 1011 hPa | 0 mm | - | 0 W/m² | - |
| 1777766955 | 12.78° C | 77% | 1011.1 hPa | 0 mm | - | 0 W/m² | - |
| 1777766651 | 12.78° C | 76% | 1011.2 hPa | 0 mm | - | 0 W/m² | - |
| 1777766348 | 12.78° C | 74% | 1011 hPa | 0 mm | - | 0 W/m² | - |
| 1777766045 | 12.78° C | 73% | 1011 hPa | 0 mm | - | 0 W/m² | - |
| 1777765743 | 13.33° C | 71% | 1010.9 hPa | 0 mm | - | 0 W/m² | - |
| 1777765439 | 13.33° C | 69% | 1011 hPa | 0 mm | - | 3 W/m² | - |
| 1777765136 | 13.33° C | 68% | 1011 hPa | 0 mm | - | 6 W/m² | - |
| 1777764832 | 13.89° C | 66% | 1010.9 hPa | 0 mm | - | 10 W/m² | - |
| 1777764529 | 13.89° C | 65% | 1010.9 hPa | 0 mm | - | 18 W/m² | - |
| 1777764225 | 13.89° C | 64% | 1010.7 hPa | 0 mm | - | 24 W/m² | - |
| 1777763922 | 13.89° C | 64% | 1010.6 hPa | 0 mm | - | 32 W/m² | - |
| 1777763620 | 14.44° C | 63% | 1010.9 hPa | 0 mm | - | 29 W/m² | - |
| 1777763318 | 14.44° C | 63% | 1010.6 hPa | 0 mm | - | 32 W/m² | - |
* Rain latest hour (hover to see other rain measurements)
** Current wind speed in m/s (hover to see current wind gust speed)